When you browse on this site, cookies collect data to enhance your experience and personalize the content and advertising you see.
Visit our Privacy Policy to learn more. By continuing to use the site, you agree to this use of cookies and data.
  • In Austria
  • List of Countries
  • For 7 days
  • Water Temperature
  • Satellite Maps
  • Weather Map
  • News
  • Weather Widgets
  • user-avatar
    Login

    Hourly Weather Sidi Bu-l-Abbas

    Today, 26 May, Sunday

    Time Temperature Precipitation Wind Pressure Humidity
    00:00 +16°C° 0 mm 3 mps 720 mmHg 78%
    01:00 +16°C° 0.1 mm 3 mps 720 mmHg 80%
    02:00 +16°C° 0.1 mm 3 mps 720 mmHg 81%
    03:00 +14°C° 0.1 mm 3 mps 720 mmHg 82%
    04:00 +15°C° 0.1 mm 2 mps 720 mmHg 82%
    05:00 +15°C° 0.1 mm 2 mps 720 mmHg 83%
    06:00 +15°C° 0.1 mm 2 mps 720 mmHg 83%
    07:00 +16°C° 0.1 mm 2 mps 720 mmHg 79%
    08:00 +17°C° 0.1 mm 2 mps 721 mmHg 74%
    09:00 +18°C° 0.1 mm 2 mps 721 mmHg 70%
    10:00 +19°C° 0 mm 2 mps 721 mmHg 64%
    11:00 +20°C° 0 mm 3 mps 721 mmHg 59%
    12:00 +21°C° 0 mm 3 mps 721 mmHg 54%
    13:00 +22°C° 0 mm 3 mps 721 mmHg 50%
    14:00 +23°C° 0 mm 4 mps 720 mmHg 47%
    15:00 +25°C° 0 mm 4 mps 720 mmHg 44%
    16:00 +23°C° 0 mm 4 mps 720 mmHg 46%
    17:00 +23°C° 0 mm 4 mps 720 mmHg 49%
    18:00 +22°C° 0 mm 4 mps 720 mmHg 52%
    19:00 +21°C° 0 mm 3 mps 720 mmHg 56%
    20:00 +21°C° 0 mm 2 mps 720 mmHg 60%
    21:00 +20°C° 0 mm 2 mps 720 mmHg 64%
    22:00 +20°C° 0 mm 1 mps 720 mmHg 66%
    23:00 +20°C° 0 mm 1 mps 720 mmHg 69%

    Tomorrow, 27 May, Monday

    Time Temperature Precipitation Wind Pressure Humidity
    00:00 +17°C° 0 mm 0 mps 720 mmHg 72%
    01:00 +17°C° 0 mm 0 mps 719 mmHg 73%
    02:00 +16°C° 0 mm 0 mps 719 mmHg 75%
    03:00 +16°C° 0 mm 0 mps 719 mmHg 76%
    04:00 +16°C° 0 mm 0 mps 719 mmHg 73%
    05:00 +19°C° 0 mm 1 mps 719 mmHg 70%
    06:00 +20°C° 0 mm 1 mps 719 mmHg 67%
    07:00 +21°C° 0 mm 1 mps 719 mmHg 58%
    08:00 +23°C° 0 mm 1 mps 719 mmHg 48%
    09:00 +24°C° 0 mm 1 mps 720 mmHg 39%
    10:00 +25°C° 0 mm 1 mps 720 mmHg 35%
    11:00 +27°C° 0 mm 1 mps 720 mmHg 31%
    12:00 +28°C° 0 mm 1 mps 720 mmHg 27%
    13:00 +29°C° 0 mm 2 mps 719 mmHg 26%
    14:00 +29°C° 0 mm 3 mps 719 mmHg 25%
    15:00 +30°C° 0 mm 3 mps 718 mmHg 24%
    16:00 +29°C° 0 mm 4 mps 718 mmHg 26%
    17:00 +29°C° 0 mm 4 mps 718 mmHg 28%
    18:00 +28°C° 0 mm 5 mps 718 mmHg 30%
    19:00 +27°C° 0 mm 4 mps 718 mmHg 32%
    20:00 +26°C° 0 mm 3 mps 718 mmHg 35%
    21:00 +25°C° 0 mm 1 mps 719 mmHg 37%
    22:00 +24°C° 0 mm 1 mps 719 mmHg 39%
    23:00 +23°C° 0 mm 1 mps 718 mmHg 42%

    Day after tomorrow, 28 May, Tuesday

    Time Temperature Precipitation Wind Pressure Humidity
    00:00 +20°C° 0 mm 0 mps 718 mmHg 44%
    01:00 +20°C° 0 mm 0 mps 718 mmHg 45%
    02:00 +19°C° 0 mm 0 mps 718 mmHg 46%
    03:00 +19°C° 0 mm 0 mps 717 mmHg 47%
    04:00 +20°C° 0 mm 0 mps 718 mmHg 46%
    05:00 +22°C° 0 mm 1 mps 718 mmHg 45%
    06:00 +23°C° 0 mm 1 mps 718 mmHg 44%
    07:00 +25°C° 0 mm 1 mps 718 mmHg 37%
    08:00 +26°C° 0 mm 1 mps 719 mmHg 31%
    09:00 +28°C° 0 mm 1 mps 719 mmHg 24%
    10:00 +30°C° 0 mm 2 mps 719 mmHg 22%
    11:00 +31°C° 0 mm 2 mps 719 mmHg 20%
    12:00 +32°C° 0 mm 2 mps 719 mmHg 18%
    13:00 +33°C° 0 mm 3 mps 719 mmHg 18%
    14:00 +34°C° 0 mm 4 mps 719 mmHg 18%
    15:00 +34°C° 0 mm 5 mps 719 mmHg 18%
    16:00 +33°C° 0 mm 5 mps 719 mmHg 20%
    17:00 +32°C° 0 mm 5 mps 718 mmHg 23%
    18:00 +30°C° 0 mm 5 mps 718 mmHg 25%
    19:00 +29°C° 0 mm 4 mps 719 mmHg 28%
    20:00 +27°C° 0 mm 2 mps 719 mmHg 31%
    21:00 +26°C° 0 mm 1 mps 719 mmHg 34%
    22:00 +25°C° 0 mm 1 mps 719 mmHg 37%
    23:00 +23°C° 0 mm 0 mps 719 mmHg 40%

    29 May, Wednesday

    Time Temperature Precipitation Wind Pressure Humidity
    00:00 +22°C° 0 mm 0 mps 719 mmHg 43%
    01:00 +21°C° 0 mm 0 mps 719 mmHg 43%
    02:00 +21°C° 0 mm 0 mps 719 mmHg 44%
    03:00 +22°C° 0 mm 1 mps 719 mmHg 45%
    04:00 +20°C° 0 mm 0 mps 719 mmHg 46%
    05:00 +21°C° 0 mm 0 mps 719 mmHg 47%
    06:00 +21°C° 0 mm 0 mps 720 mmHg 48%
    07:00 +25°C° 0 mm 1 mps 720 mmHg 42%
    08:00 +27°C° 0 mm 1 mps 721 mmHg 36%
    09:00 +28°C° 0 mm 1 mps 721 mmHg 29%
    10:00 +29°C° 0 mm 2 mps 721 mmHg 28%
    11:00 +31°C° 0 mm 3 mps 721 mmHg 26%
    12:00 +33°C° 0 mm 4 mps 721 mmHg 24%
    13:00 +33°C° 0 mm 5 mps 721 mmHg 24%
    14:00 +33°C° 0 mm 6 mps 721 mmHg 25%
    15:00 +33°C° 0 mm 6 mps 721 mmHg 26%
    16:00 +30°C° 0 mm 6 mps 721 mmHg 28%
    17:00 +29°C° 0 mm 6 mps 721 mmHg 30%
    18:00 +28°C° 0 mm 5 mps 721 mmHg 32%
    19:00 +26°C° 0 mm 4 mps 721 mmHg 35%
    20:00 +25°C° 0 mm 3 mps 722 mmHg 38%
    21:00 +24°C° 0 mm 2 mps 722 mmHg 41%
    22:00 +24°C° 0 mm 2 mps 722 mmHg 43%
    23:00 +23°C° 0 mm 2 mps 723 mmHg 45%

    30 May, Thursday

    Time Temperature Precipitation Wind Pressure Humidity
    00:00 +21°C° 0 mm 2 mps 723 mmHg 47%
    01:00 +21°C° 0 mm 2 mps 723 mmHg 48%
    02:00 +21°C° 0 mm 1 mps 723 mmHg 50%
    03:00 +21°C° 0 mm 1 mps 723 mmHg 51%
    04:00 +21°C° 0 mm 1 mps 723 mmHg 51%
    05:00 +21°C° 0 mm 1 mps 723 mmHg 50%
    06:00 +21°C° 0 mm 1 mps 723 mmHg 49%
    07:00 +21°C° 0 mm 2 mps 724 mmHg 44%
    08:00 +24°C° 0 mm 3 mps 724 mmHg 38%
    09:00 +25°C° 0 mm 3 mps 724 mmHg 32%
    10:00 +27°C° 0 mm 4 mps 724 mmHg 30%
    11:00 +28°C° 0 mm 5 mps 724 mmHg 28%
    12:00 +29°C° 0 mm 6 mps 724 mmHg 26%
    13:00 +29°C° 0 mm 6 mps 724 mmHg 27%
    14:00 +29°C° 0 mm 6 mps 724 mmHg 28%
    15:00 +29°C° 0 mm 6 mps 723 mmHg 28%
    16:00 +28°C° 0 mm 6 mps 723 mmHg 32%
    17:00 +27°C° 0 mm 5 mps 723 mmHg 35%
    18:00 +26°C° 0 mm 5 mps 723 mmHg 38%
    19:00 +23°C° 0 mm 4 mps 724 mmHg 42%
    20:00 +22°C° 0 mm 3 mps 724 mmHg 47%
    21:00 +21°C° 0 mm 2 mps 724 mmHg 52%
    22:00 +20°C° 0 mm 2 mps 724 mmHg 55%
    23:00 +21°C° 0 mm 1 mps 724 mmHg 58%

    31 May, Friday

    Time Temperature Precipitation Wind Pressure Humidity
    00:00 +20°C° 0 mm 1 mps 724 mmHg 62%
    01:00 +20°C° 0 mm 1 mps 724 mmHg 63%
    02:00 +19°C° 0 mm 1 mps 724 mmHg 65%
    03:00 +19°C° 0 mm 1 mps 724 mmHg 67%
    04:00 +19°C° 0 mm 1 mps 724 mmHg 67%
    05:00 +17°C° 0 mm 0 mps 724 mmHg 66%
    06:00 +17°C° 0 mm 0 mps 724 mmHg 66%
    07:00 +21°C° 0 mm 1 mps 724 mmHg 59%
    08:00 +23°C° 0 mm 1 mps 725 mmHg 52%
    09:00 +25°C° 0 mm 2 mps 725 mmHg 45%
    10:00 +27°C° 0 mm 3 mps 725 mmHg 40%
    11:00 +29°C° 0 mm 4 mps 725 mmHg 36%
    12:00 +32°C° 0 mm 5 mps 724 mmHg 31%
    13:00 +32°C° 0 mm 6 mps 724 mmHg 32%
    14:00 +32°C° 0 mm 7 mps 724 mmHg 33%
    15:00 +31°C° 0 mm 8 mps 723 mmHg 34%
    16:00 +29°C° 0.1 mm 7 mps 723 mmHg 36%
    17:00 +28°C° 0.1 mm 6 mps 723 mmHg 39%
    18:00 +27°C° 0.1 mm 5 mps 723 mmHg 42%
    19:00 +26°C° 0 mm 4 mps 723 mmHg 46%
    20:00 +25°C° 0 mm 3 mps 723 mmHg 50%
    21:00 +23°C° 0 mm 2 mps 723 mmHg 54%
    22:00 +23°C° 0 mm 2 mps 723 mmHg 56%
    23:00 +22°C° 0 mm 1 mps 723 mmHg 58%
    Show more